Regional Weather Roundup
Issued by NWS Jackson, KY

Home | Current Version | Previous Version | Text Only | Print | Product List | Glossary Off
Versions: 1 2 3 4 5 6 7 8 9 10 11 12 13 14 15 16 17 18 19 20 21 22 23 24 25 26 27 28 29 30 31 32 33 34 35 36 37 38 39 40 41 42 43 44 45 46 47 48 49 50

000
ASUS43 KJKL 282219
RWRJKL

EAST KENTUCKY HOURLY WEATHER ROUNDUP
NATIONAL WEATHER SERVICE JACKSON KY
600 PM EDT MON JUL 28 2014

NOTE: "FAIR" INDICATES FEW OR NO CLOUDS BELOW 12,000 FEET WITH
NO SIGNIFICANT WEATHER AND/OR OBSTRUCTIONS TO VISIBILITY.

* THESE REPORTS ARE NOT UNDER NWS QUALITY CONTROL AND MAY NOT
  REPORT WEATHER SUCH AS PRECIPITATION AND FOG.

KYZ079-080-083-085-087-088-110-112-115-119-120-282300
...EASTERN KENTUCKY...

CITY           SKY/WX    TMP DP  RH WIND       PRES   REMARKS
JACKSON        CLOUDY    70  57  63 VRB5      29.99S
LONDON         CLOUDY    76  59  55 NW10      29.99S
SOMERSET*      PTSUNNY   73  59  60 N12       30.00R
MONTICELLO*    MOSUNNY   76  62  61 NW7       30.01R
WILLIAMSBURG*  MOSUNNY   73  63  68 CALM      29.98S
MIDDLESBORO*   CLOUDY    76  60  57 NW10      29.97F
HARLAN APT*    CLOUDY    72  57  60 MISG      29.98S
BLACK MTN*       N/A     61  57  88 N5          N/A
PIKEVILLE APT* CLOUDY    70  59  68 W7        29.98S
BIG SANDY*     CLOUDY    70  61  74 NW5       29.98R
MOREHEAD APT*  CLOUDY    70  61  73 NW8       30.00S
ASHLAND*       CLOUDY    66  59  77 CALM      29.93R
$$

KYZ035-036-041-042-044-050-067-078-099-282300
...CENTRAL KENTUCKY...

CITY           SKY/WX    TMP DP  RH WIND       PRES   REMARKS
MT STERLING*   CLOUDY    70  61  73 NW6       30.01S
FLEMING/MASON* PTSUNNY   72  60  67 W9G18     29.98S
DANVILLE*      CLOUDY    72  59  64 N10       30.02S
RICHMOND*      CLOUDY    72  57  60 NW7G18    29.99S
LEXINGTON      CLOUDY    74  59  59 NW15      30.00F
FRANKFORT      CLOUDY    72  59  63 NW13G18   30.00S
$$

KYZ091>093-OHZ055-061-077-WVZ005-015-034-035-042-282300
...SOUTHERN OHIO/WEST VIRGINIA...

CITY           SKY/WX    TMP DP  RH WIND       PRES   REMARKS
COVINGTON      MOSUNNY   73  57  57 NW14      29.98S
COLUMBUS       PTSUNNY   74  54  49 NW13      29.92R
DAYTON         MOSUNNY   74  53  48 NW14      29.98R
WILMINGTON     PTSUNNY   71  55  56 N12       29.96R
HUNTINGTON     RAIN      64  62  93 N9G20     29.95R FOG
CHARLESTON     PTSUNNY   66  64  93 W7        29.94R
PINEVILLE*     CLOUDY    67  63  86 MISG      30.01S
BECKLEY        CLOUDY    65  54  67 NW13      29.97R
BLUEFIELD      CLOUDY    68  55  63 NW10G22   29.99R
$$

VAZ002-007-008-TNZ017-027-036-066-071-282300
...SOUTHWEST VIRGINIA/EAST TENNESSEE...

CITY           SKY/WX    TMP DP  RH WIND       PRES   REMARKS
WISE*          CLOUDY    68  55  64 NW5       30.02S
JONESVILLE*    PTCLDY    75  59  57 NW7       29.98S
ABINGDON*      CLOUDY    72  58  60 N10       29.98R
BRISTOL        PTSUNNY   75  56  51 W16       29.95S
KNOXVILLE      PTSUNNY   79  60  52 NW8       29.95S
OAK RIDGE      PTSUNNY   81  59  47 VRB5      29.97S
CROSSVILLE     PTSUNNY   77  59  53 NW8       30.02S
NASHVILLE      PTSUNNY   81  59  47 NW15G21   29.99S
$$

...KEY TO REMARKS...
VSB - VISIBILITY IN MILES
WCI - WIND CHILL INDEX
HX  - HEAT INDEX

$$



USA.gov is the U.S. government's official web portal to all federal, state and local government web resources and services.